Starlink 6275

operational
NORAD ID: 56772 Int'l Des: 2023-078 Owner: SPXS Country: US Constellation: starlink
LEOCIRCULAR

Starlink 6275について

説明を読み込み中...

リアルタイム位置

3D地球を読み込み中...

次回通過

高度履歴

Altitude vs Time

uPlot chart will show altitude changes over time

軌道要素

1 56772U 23078F 25350.94701228 -.00000131 00000-0 -31775-5 0 9990
2 56772 69.9977 213.0518 0002950 273.5785 86.5037 14.98329541139793
Epoch: Dec 16, 2025 • Age: 11 hours

現在のステータス

高度 582.2 km
速度 7.57 km/s
衛星直下点 54.70°N, 3.14°E
打ち上げ日 May 31, 2023
運用期間 2.5 years
タイプ internet

技術仕様

分類 Payload
質量 305.00 kg
乾燥質量 290.00 kg
総質量 305.00 kg
長さ 0.20 m
直径 2.80 m
スパン 9.00 m
形状 Box + pan
製造者 SPXS
バスタイプ Starlink
フェーズステータス In Orbit
所有者/国 SPXS/US

大規模コンステレーション

Loading constellations...